Wind_Speed
6 6 5 5 5 5 5 4 4 4 4 3 3 3 3 2 2 2 2 2 1 2 2 1 0 0 0 0 1 1 2 2 3 3 3 4 4 4 5 5 5 5 5
5 4 4 3 3 3 3 3 3 3 2 2 2 2 2 2 1 1 1 0 0 1 1 1 1 1 1 2 2 2 3 3 4 4 5 5 5 5 5 6 7 7 7
3 3 2 2 2 2 2 2 1 2 1 1 1 1 0 0 1 1 1 1 2 2 2 2 2 2 2 3 3 4 4 4 4 5 6 6 6 7 7 7 7 8 8
2 2 1 1 1 1 1 1 1 1 1 1 2 2 2 2 2 2 2 3 3 3 3 4 4 4 5 5 5 5 5 5 6 6 6 7 7 8 8 8 8 8 9
2 2 2 1 1 1 1 2 2 2 2 2 2 3 3 3 3 3 3 4 4 5 5 5 5 6 6 7 6 7 7 7 7 8 8 8 8 8 9 9 9 9 9
3 2 3 2 2 3 3 2 2 3 3 3 4 4 4 4 4 4 5 6 6 6 6 7 7 7 7 8 8 8 9 8 8 8 9 9 9 8 9 9 10 10 10
4 3 4 3 4 4 4 3 3 4 4 5 5 5 5 5 5 5 6 7 7 7 8 8 9 9 9 9 9 10 10 9 10 10 10 9 10 10 10 10 11 11 11
4 4 4 4 4 4 4 4 5 5 6 6 6 6 6 6 7 7 8 8 9 9 10 10 11 10 11 10 11 11 12 12 11 12 12 11 11 12 11 12 13 13 13
6 6 5 5 5 4 5 5 5 5 6 7 7 7 7 8 9 9 10 10 10 11 11 12 11 11 11 12 12 13 13 14 14 14 14 14 14 13 13 14 14 15 15
7 6 6 6 6 6 6 6 6 6 7 7 7 8 9 9 10 11 11 11 11 12 12 12 12 12 12 12 13 13 14 14 14 15 15 15 16 16 15 15 16 16 17
8 7 7 7 7 7 7 6 6 7 8 8 9 9 10 10 11 12 12 12 13 13 13 13 13 13 13 13 13 14 14 15 15 15 16 16 17 17 18 18 18 18 18
8 9 9 9 9 9 8 7 7 7 8 8 9 9 10 11 12 12 13 13 13 14 13 14 14 14 14 15 15 15 16 16 16 17 17 17 18 19 19 19 20 20 20
10 10 10 9 9 8 9 8 8 8 9 9 9 10 11 12 13 13 14 14 14 15 15 15 15 15 16 16 16 16 17 18 18 18 19 19 19 20 20 20 21 21 22
11 11 10 9 9 10 10 9 10 10 10 10 10 11 12 13 13 14 14 14 15 16 16 16 16 16 16 17 17 18 18 19 19 20 21 21 21 21 22 22 22 22 23
11 11 10 10 10 11 10 10 11 11 12 12 12 12 13 14 14 14 15 16 17 17 17 17 17 18 19 19 19 20 20 21 21 21 22 22 22 23 24 24 24 25 25
11 11 10 10 10 10 10 11 11 12 12 13 14 14 15 16 16 16 16 17 18 18 18 18 19 19 20 21 22 22 22 22 22 22 23 23 24 25 26 26 27 27 28
10 10 10 10 10 9 10 11 12 12 12 13 14 14 15 16 17 17 17 18 19 19 20 20 21 22 22 23 24 24 24 24 24 24 25 26 26 27 28 28 28 29 30
11 10 10 9 9 10 11 11 13 13 13 13 14 14 15 16 17 17 18 19 19 20 21 21 21 22 23 24 24 24 25 26 26 27 27 28 29 29 29 30 31 32 32
11 11 10 11 11 12 13 14 14 14 14 14 15 15 16 17 18 18 18 19 19 20 21 22 23 23 24 24 25 26 27 28 29 29 30 31 32 32 32 32 32 33 33
12 12 13 13 13 14 15 15 15 16 16 16 17 17 18 19 19 19 19 20 21 22 23 25 25 25 26 26 27 27 28 29 29 29 31 32 32 33 33 33 34 35 35
14 15 15 16 16 16 17 17 17 17 17 18 18 19 19 20 20 21 22 22 23 24 25 25 26 26 27 27 28 28 29 29 30 31 31 32 33 33 33 34 35 36 37
15 16 16 16 17 18 18 19 19 18 19 20 20 21 21 21 22 23 24 24 25 25 26 27 28 28 28 28 28 30 31 32 32 32 32 33 33 35 35 36 37 38 39
16 16 17 17 18 18 19 19 20 20 20 21 22 22 23 23 23 24 24 25 26 26 27 28 29 29 29 29 30 31 32 33 33 33 34 35 35 36 37 38 38 39 40
18 18 18 19 19 20 20 21 21 21 21 22 23 23 23 24 24 25 25 26 27 28 28 29 29 30 31 31 32 32 33 33 34 35 36 37 37 38 39 39 40 41 42
19 19 19 19 19 20 20 20 20 20 21 22 23 23 24 24 25 25 26 27 27 28 29 30 30 31 31 32 32 33 34 35 35 36 36 37 38 39 40 41 41 42 43
20 20 20 20 20 20 19 20 20 21 21 22 23 24 25 25 26 26 26 27 28 29 30 30 31 31 32 32 33 33 34 35 36 36 37 38 39 39 40 40 41 42 43
Wind_Direction
98 101 101 109 113 114 117 125 130 129 126 123 120 107 99 92 100 100 111 122 102 97 79 71 136 171 206 246 251 250 253 249 243 242 238 233 231 232 229 234 241 245 246
89 102 109 111 121 128 133 137 138 142 154 146 133 118 102 89 94 91 119 201 271 273 311 308 280 286 273 282 277 274 270 264 258 252 247 244 243 243 243 246 248 252 254
76 81 97 118 132 142 150 145 137 130 153 188 205 209 181 56 13 353 295 288 286 276 284 285 285 279 271 278 281 281 280 280 271 262 255 251 251 250 251 253 256 257 258
39 39 50 122 165 190 196 210 222 192 218 232 248 261 282 298 308 302 293 289 293 289 287 284 276 275 275 276 278 282 283 281 272 267 262 258 256 254 255 257 260 262 263
25 6 333 308 270 259 254 245 265 267 273 272 279 281 283 290 294 287 284 290 292 290 293 292 286 287 285 285 288 286 285 286 281 273 267 263 262 258 259 260 262 265 267
359 346 322 304 292 296 291 273 270 266 274 280 287 291 289 293 297 289 285 290 293 298 298 295 291 291 289 286 284 287 287 282 281 280 275 270 265 262 262 263 267 270 270
343 340 330 307 292 293 296 290 275 264 268 272 277 282 289 295 298 293 293 294 295 299 300 298 292 290 287 286 283 281 284 286 285 284 281 279 269 268 267 268 271 273 270
335 326 322 314 294 289 289 286 279 273 275 276 276 277 283 285 290 295 298 301 301 301 301 300 294 290 288 284 281 281 280 282 283 284 281 279 276 273 274 275 274 274 271
335 332 320 319 308 295 291 289 285 281 281 280 277 277 281 284 288 292 296 298 299 300 300 299 294 292 288 287 283 281 281 282 280 279 277 276 276 275 277 275 274 274 272
324 324 316 316 318 304 293 292 289 286 286 285 281 279 282 285 291 293 297 297 298 299 296 295 294 291 289 286 285 284 284 285 285 284 279 274 272 275 276 275 274 274 273
315 317 310 309 306 300 294 294 291 291 291 287 283 282 282 285 288 292 296 296 296 296 294 292 290 290 291 287 286 286 286 287 286 284 283 278 272 272 273 274 273 273 274
318 314 312 310 304 300 294 293 294 300 294 290 285 282 282 287 291 292 295 295 295 294 292 291 290 288 289 288 286 286 285 286 284 282 280 280 277 274 274 273 272 272 273
315 314 312 310 304 301 296 291 293 300 297 292 287 284 284 285 288 291 293 292 292 291 291 292 291 290 288 289 287 286 286 285 285 284 282 281 280 279 277 275 275 273 273
306 305 306 300 297 297 297 290 292 293 291 289 287 287 287 287 289 292 291 290 291 293 293 294 291 290 290 289 288 287 286 285 284 283 281 279 280 278 278 277 276 275 274
304 303 301 292 292 297 296 292 290 290 288 285 282 282 285 287 290 291 289 289 291 294 296 295 293 291 289 289 289 289 288 286 284 283 281 278 278 278 278 278 277 276 275
306 305 300 294 295 295 294 294 294 294 289 287 284 282 283 287 288 288 289 290 293 294 293 292 293 292 291 289 289 290 291 289 285 284 283 281 280 279 279 278 278 277 278
316 313 307 305 301 300 299 299 301 300 295 292 289 285 284 286 287 288 289 290 293 294 292 291 292 292 293 292 292 290 291 290 286 285 285 284 284 285 283 281 280 279 280
313 312 311 309 304 301 303 301 299 299 296 296 292 288 286 288 288 290 292 293 295 297 297 296 296 295 293 293 293 292 290 290 289 287 285 285 284 285 284 282 281 281 281
308 307 307 305 300 298 300 299 298 299 297 298 297 295 292 291 291 293 295 295 296 298 299 300 299 298 297 297 293 291 290 290 289 288 287 286 284 284 283 282 283 283 282
303 303 303 301 299 299 297 296 295 297 297 297 298 298 297 296 297 299 298 298 298 298 297 299 298 297 298 297 296 295 293 292 291 289 287 286 284 285 285 284 284 284 284
300 301 302 299 298 298 298 298 297 295 294 296 297 297 297 297 296 297 297 298 298 298 299 300 299 299 298 297 296 296 296 294 293 293 291 290 288 287 286 285 285 285 285
299 299 300 299 298 298 296 294 293 293 294 294 295 296 295 295 295 295 296 297 298 298 298 299 299 299 299 298 298 298 297 295 294 293 293 293 291 290 288 287 287 286 285
300 298 297 296 297 298 298 298 296 295 296 296 295 296 297 296 296 297 297 298 299 298 298 299 299 299 299 299 299 298 297 297 296 295 295 293 291 290 289 288 287 287 287
301 298 296 295 295 296 295 297 297 298 299 299 299 299 300 299 299 300 300 300 300 300 300 300 300 301 301 300 299 298 297 297 297 296 295 294 293 292 291 290 289 289 288
299 297 294 295 297 298 298 297 298 298 300 301 302 302 303 302 302 301 302 303 302 302 302 302 301 301 301 300 300 300 300 299 298 297 296 295 295 295 294 293 292 291 290
302 299 296 295 297 297 297 299 300 301 301 302 304 304 303 303 304 303 303 304 303 303 302 303 303 303 303 303 303 303 302 301 301 300 299 299 298 297 297 295 294 294 292
Height
5903 5902 5902 5902 5902 5903 5903 5903 5904 5904 5904 5904 5904 5904 5904 5903 5903 5903 5903 5903 5903 5903 5903 5903 5902 5902 5902 5902 5901 5901 5901 5901 5901 5901 5900 5900 5901 5901 5901 5901 5901 5902 5902
5904 5904 5904 5904 5904 5904 5904 5904 5904 5904 5904 5904 5904 5904 5904 5904 5904 5903 5903 5903 5903 5903 5903 5902 5902 5902 5902 5901 5901 5901 5900 5900 5900 5900 5900 5900 5900 5900 5900 5900 5900 5900 5901
5905 5905 5905 5905 5904 5904 5904 5904 5904 5904 5904 5904 5904 5904 5904 5904 5904 5903 5903 5903 5903 5902 5902 5902 5902 5901 5901 5900 5900 5900 5899 5899 5899 5898 5898 5898 5898 5898 5899 5899 5899 5899 5899
5906 5905 5905 5905 5905 5905 5905 5905 5905 5905 5904 5904 5904 5904 5904 5904 5903 5903 5903 5903 5902 5902 5902 5901 5901 5900 5900 5899 5899 5898 5898 5898 5897 5897 5897 5896 5896 5896 5897 5897 5897 5897 5897
5906 5905 5905 5905 5905 5905 5905 5905 5905 5905 5904 5904 5904 5904 5904 5903 5903 5903 5902 5902 5902 5901 5901 5900 5900 5899 5899 5898 5898 5897 5897 5896 5895 5895 5895 5895 5894 5894 5894 5894 5894 5894 5894
5906 5905 5905 5905 5904 5904 5904 5904 5904 5904 5904 5904 5904 5903 5903 5903 5903 5902 5902 5901 5901 5900 5900 5899 5898 5898 5897 5897 5896 5896 5895 5894 5894 5893 5893 5892 5892 5892 5892 5892 5892 5892 5892
5906 5905 5905 5904 5904 5904 5904 5903 5903 5903 5903 5903 5903 5903 5902 5902 5902 5901 5901 5900 5900 5899 5898 5898 5897 5896 5895 5895 5894 5894 5893 5892 5892 5891 5890 5890 5890 5889 5889 5889 5889 5889 5889
5905 5905 5905 5904 5904 5903 5903 5903 5902 5902 5902 5902 5902 5902 5902 5902 5901 5900 5900 5899 5898 5898 5897 5896 5895 5894 5893 5892 5892 5891 5891 5890 5889 5889 5888 5888 5887 5887 5886 5886 5886 5886 5885
5905 5904 5904 5903 5903 5902 5902 5902 5902 5901 5901 5901 5900 5900 5900 5900 5899 5899 5898 5897 5896 5896 5895 5894 5893 5892 5890 5890 5889 5889 5888 5887 5886 5885 5885 5884 5884 5883 5883 5883 5882 5882 5881
5904 5904 5903 5903 5902 5901 5901 5901 5900 5900 5900 5899 5899 5898 5898 5898 5897 5897 5897 5895 5894 5893 5892 5891 5890 5889 5887 5887 5886 5886 5885 5884 5883 5882 5881 5880 5880 5880 5879 5879 5878 5878 5877
5904 5903 5902 5902 5901 5900 5900 5899 5899 5898 5898 5897 5897 5897 5896 5896 5895 5894 5894 5893 5892 5891 5890 5888 5887 5886 5885 5884 5883 5882 5882 5881 5880 5879 5878 5876 5876 5875 5875 5874 5874 5873 5873
5902 5902 5901 5900 5899 5898 5898 5898 5897 5896 5896 5895 5895 5894 5894 5893 5892 5892 5891 5890 5889 5888 5887 5885 5884 5883 5882 5881 5880 5879 5878 5877 5876 5874 5873 5872 5872 5871 5870 5869 5869 5868 5868
5901 5900 5899 5898 5897 5897 5896 5896 5895 5895 5894 5893 5892 5892 5891 5890 5890 5889 5888 5887 5886 5885 5883 5882 5881 5880 5878 5877 5876 5875 5873 5872 5871 5870 5869 5868 5867 5866 5865 5864 5864 5863 5862
5899 5898 5897 5896 5895 5894 5894 5893 5893 5892 5892 5891 5890 5889 5888 5888 5887 5886 5885 5884 5883 5881 5880 5878 5877 5876 5875 5873 5872 5870 5869 5868 5866 5865 5864 5863 5862 5861 5860 5859 5858 5857 5856
5897 5895 5894 5893 5893 5892 5892 5891 5890 5889 5889 5888 5887 5886 5886 5885 5884 5883 5882 5880 5880 5878 5876 5874 5873 5872 5870 5869 5867 5866 5864 5863 5861 5860 5858 5857 5856 5855 5853 5852 5851 5850 5849
5894 5893 5892 5891 5890 5889 5889 5889 5888 5886 5886 5885 5884 5883 5882 5881 5881 5879 5878 5877 5875 5874 5872 5871 5869 5867 5865 5864 5862 5860 5859 5857 5856 5854 5853 5851 5850 5848 5847 5845 5844 5843 5842
5892 5891 5890 5889 5888 5887 5887 5886 5885 5884 5883 5882 5881 5880 5879 5878 5877 5876 5874 5873 5871 5869 5868 5867 5865 5862 5860 5858 5857 5855 5853 5851 5850 5848 5846 5845 5843 5841 5840 5838 5837 5835 5834
5890 5889 5888 5887 5886 5886 5885 5884 5883 5881 5880 5879 5877 5876 5875 5874 5873 5872 5870 5868 5867 5865 5863 5861 5859 5857 5855 5853 5851 5849 5847 5845 5843 5841 5839 5837 5836 5834 5832 5831 5829 5827 5825
5888 5887 5885 5885 5884 5883 5883 5881 5880 5878 5877 5876 5874 5873 5871 5870 5869 5867 5865 5864 5862 5860 5858 5856 5854 5851 5849 5847 5845 5843 5840 5838 5836 5834 5832 5830 5828 5826 5824 5822 5820 5818 5816
5886 5884 5883 5882 5881 5880 5879 5878 5877 5875 5874 5873 5871 5870 5868 5866 5864 5862 5861 5859 5857 5855 5853 5850 5848 5845 5843 5840 5838 5836 5833 5831 5828 5826 5824 5822 5819 5817 5815 5813 5811 5809 5807
5883 5882 5880 5879 5878 5877 5876 5875 5874 5872 5871 5869 5868 5866 5864 5862 5860 5858 5856 5854 5852 5850 5847 5844 5842 5839 5837 5834 5831 5828 5826 5823 5820 5818 5816 5813 5811 5808 5806 5803 5801 5799 5797
5880 5878 5877 5876 5874 5873 5872 5871 5869 5868 5866 5865 5863 5861 5859 5857 5855 5853 5851 5848 5846 5844 5841 5838 5836 5833 5830 5827 5824 5821 5818 5815 5812 5810 5806 5804 5801 5798 5796 5793 5791 5788 5786
5876 5875 5874 5872 5871 5869 5868 5866 5865 5863 5862 5860 5858 5856 5854 5851 5849 5847 5845 5842 5840 5837 5835 5832 5829 5825 5823 5820 5817 5813 5810 5807 5803 5800 5797 5794 5791 5788 5785 5782 5779 5776 5774
5872 5871 5869 5868 5867 5865 5863 5862 5860 5858 5857 5855 5853 5850 5848 5845 5843 5841 5838 5836 5833 5830 5827 5825 5822 5818 5815 5812 5808 5805 5802 5798 5795 5791 5787 5784 5780 5777 5774 5771 5768 5764 5761
5868 5866 5865 5864 5862 5860 5859 5857 5855 5853 5851 5849 5847 5844 5842 5840 5837 5835 5832 5829 5826 5823 5820 5816 5813 5810 5806 5803 5800 5796 5792 5789 5785 5781 5777 5774 5770 5766 5762 5759 5755 5752 5748
5864 5862 5860 5859 5857 5855 5854 5852 5850 5848 5846 5844 5841 5839 5836 5834 5831 5828 5825 5822 5819 5816 5812 5809 5805 5802 5798 5794 5791 5787 5783 5779 5775 5771 5767 5763 5759 5755 5751 5746 5742 5738 5735